EW3148 Weather Reports


time (UTC)temp
C
wind
direction
speed
KPH
gust
KPH
rain 1hr
cm
rain 24hr
cm
rain mn
cm
humidity
%
barometer
mb
20260902161351 34 196 3.2 11.3 0.00 0.00 0.00 48 1012.8
20260902160356 33 272 4.8 16.1 0.00 0.00 0.00 49 1012.8
20260902155332 33 273 3.2 16.1 0.00 0.00 0.00 51 1012.7
20260902153242 32 247 4.8 16.1 0.00 0.00 0.00 54 1012.6
20260902152217 31 275 4.8 19.3 0.00 0.00 0.00 57 1012.7
20260902151212 31 254 4.8 19.3 0.00 0.00 0.00 60 1012.7
20260902143820 30 225 3.2 12.9 0.00 0.00 0.00 67 1012.9
20260902142810 29 257 1.6 9.7 0.00 0.00 0.00 71 1012.9
20260902134357 27 257 1.6 11.3 0.00 0.00 0.00 78 1012.7
20260902133407 26 262 1.6 9.7 0.00 0.00 0.00 79 1012.7
20260902132414 26 214 1.6 9.7 0.00 0.00 0.00 80 1012.6
20260902131340 25 230 1.6 4.8 0.00 0.00 0.00 81 1012.5
20260902130309 25 240 0.0 4.8 0.00 0.00 0.00 82 1012.4
20260902125257 25 254 0.0 1.6 0.00 0.00 0.00 81 1012.4
20260902124222 25 237 0.0 0.0 0.00 0.00 0.00 81 1012.3
20260902123210 25 207 0.0 0.0 0.00 0.00 0.00 81 1012.1
20260902122227 25 236 0.0 1.6 0.00 0.00 0.00 81 1012.0
20260902121239 25 187 0.0 0.0 0.00 0.00 0.00 80 1012.0
20260902120214 25 187 0.0 1.6 0.00 0.00 0.00 80 1012.0
20260902115150 25 187 0.0 0.0 0.00 0.00 0.00 80 1012.0
20260902114120 25 211 0.0 0.0 0.00 0.00 0.00 79 1012.0
20260902113125 25 210 0.0 0.0 0.00 0.00 0.00 79 1011.9
20260902105900 25 311 0.0 0.0 0.00 0.00 0.00 77 1011.8
20260902104908 26 318 0.0 1.6 0.00 0.00 0.00 76 1011.7
20260902103832 26 261 0.0 3.2 0.00 0.00 0.00 76 1011.7
20260902102821 26 239 0.0 9.7 0.00 0.00 0.00 76 1011.7
20260902100613 26 237 1.6 11.3 0.00 0.00 0.00 76 1011.5
20260902093318 26 231 1.6 12.9 0.00 0.00 0.00 76 1011.5
20260902091158 26 254 3.2 6.4 0.00 0.00 0.00 75 1011.5
20260902085107 26 194 1.6 11.3 0.00 0.00 0.00 73 1011.7
20260902082914 26 200 3.2 9.7 0.00 0.00 0.00 72 1011.8
20260902081852 26 210 3.2 9.7 0.00 0.00 0.00 72 1011.9
20260902080904 27 199 1.6 9.7 0.00 0.00 0.00 72 1011.9
20260902074740 27 209 3.2 11.3 0.00 0.00 0.00 71 1011.8
20260902073722 27 174 3.2 8.0 0.00 0.00 0.00 70 1011.9
20260902071528 27 197 3.2 12.9 0.00 0.00 0.00 70 1011.9
20260902070534 27 207 3.2 12.9 0.00 0.00 0.00 69 1012.0
20260902064333 27 210 3.2 12.9 0.00 0.00 0.00 70 1012.1
20260902063318 27 188 3.2 12.9 0.00 0.00 0.00 71 1012.0
20260902062251 27 194 3.2 11.3 0.00 0.00 0.00 72 1012.0
20260902061245 27 180 3.2 12.9 0.00 0.00 0.00 72 1012.1
20260902060227 27 193 3.2 12.9 0.00 0.00 0.00 72 1012.1
20260902054114 27 229 4.8 11.3 0.00 0.00 0.00 72 1012.2
20260902053056 28 176 3.2 12.9 0.00 0.00 0.00 71 1012.1
20260902050919 28 155 4.8 11.3 0.00 0.00 0.00 70 1012.2
20260902045851 28 167 3.2 9.7 0.00 0.00 0.00 69 1012.1
20260902044837 28 206 3.2 14.5 0.00 0.00 0.00 68 1012.0
20260902043829 28 184 4.8 14.5 0.00 0.00 0.00 67 1012.0
20260902042818 28 161 3.2 12.9 0.00 0.00 0.00 66 1012.0
20260902041839 29 127 3.2 12.9 0.00 0.00 0.00 65 1012.1
20260902040854 29 139 4.8 11.3 0.00 0.00 0.00 64 1012.0
20260902035822 29 143 4.8 12.9 0.00 0.00 0.00 64 1012.0
20260902033658 29 156 1.6 8.0 0.00 0.00 0.00 63 1011.9
20260902032652 30 165 3.2 8.0 0.00 0.00 0.00 62 1011.8
20260902030535 30 135 1.6 6.4 0.00 0.00 0.00 61 1011.4
20260902025524 30 107 1.6 4.8 0.00 0.00 0.00 60 1011.3
20260902024521 30 90 1.6 8.0 0.00 0.00 0.00 59 1011.0
20260902021243 31 111 1.6 8.0 0.00 0.00 0.00 58 1010.3
20260902020307 31 137 1.6 8.0 0.00 0.00 0.00 57 1010.3
20260902015308 31 139 1.6 8.0 0.00 0.00 0.00 57 1010.3
20260902014247 31 126 1.6 6.4 0.00 0.00 0.00 56 1010.1
20260902013254 32 121 1.6 6.4 0.00 0.00 0.00 55 1010.1
20260902012311 32 158 1.6 6.4 0.00 0.00 0.00 55 1010.1
20260902011302 32 175 1.6 6.4 0.00 0.00 0.00 54 1009.9
20260902010308 32 149 1.6 8.0 0.00 0.00 0.00 53 1009.8
20260902004208 33 119 3.2 9.7 0.00 0.00 0.00 51 1009.8
20260902003145 33 140 4.8 11.3 0.00 0.00 0.00 50 1009.9
20260902001017 33 112 4.8 16.1 0.00 0.00 0.00 49 1009.9
20260902000011 34 143 6.4 17.7 0.00 0.00 0.00 48 1009.9
20260901235029 34 225 4.8 17.7 0.00 0.00 0.00 47 1009.9
20260901232944 35 136 6.4 12.9 0.00 0.00 0.00 43 1009.8
20260901231928 36 87 3.2 14.5 0.00 0.00 0.00 40 1009.6
20260901225826 37 87 6.4 14.5 0.00 0.00 0.00 38 1009.6
20260901224835 37 98 3.2 12.9 0.00 0.00 0.00 37 1009.6
20260901223801 37 89 3.2 12.9 0.00 0.00 0.00 37 1009.5
20260901222736 37 167 3.2 9.7 0.00 0.00 0.00 38 1009.6
20260901221749 37 84 1.6 9.7 0.00 0.00 0.00 38 1009.6
20260901220748 37 65 1.6 9.7 0.00 0.00 0.00 38 1009.7
20260901215804 37 50 3.2 11.3 0.00 0.00 0.00 39 1009.8
20260901214800 37 92 4.8 11.3 0.00 0.00 0.00 38 1009.9
20260901213743 37 277 3.2 11.3 0.00 0.00 0.00 38 1009.9
20260901210414 36 171 3.2 19.3 0.00 0.00 0.00 40 1010.3
20260901205346 36 83 4.8 19.3 0.00 0.00 0.00 42 1010.5
20260901204352 37 5 1.6 11.3 0.00 0.00 0.00 40 1010.6
20260901203352 37 183 3.2 11.3 0.00 0.00 0.00 41 1010.7
20260901202316 36 117 3.2 14.5 0.00 0.00 0.00 44 1010.9
20260901201336 36 157 3.2 19.3 0.00 0.00 0.00 45 1011.0
20260901200331 35 116 3.2 19.3 0.00 0.00 0.00 45 1011.2
20260901195345 36 33 1.6 17.7 0.00 0.00 0.00 45 1011.4
20260901194408 36 107 4.8 17.7 0.00 0.00 0.00 44 1011.5
20260901193336 36 117 4.8 14.5 0.00 0.00 0.00 44 1011.6
20260901192317 35 129 1.6 12.9 0.00 0.00 0.00 46 1011.6
20260901191319 35 184 1.6 11.3 0.00 0.00 0.00 45 1011.7
20260901185209 36 259 3.2 16.1 0.00 0.00 0.00 46 1012.0
20260901184228 35 108 3.2 12.9 0.00 0.00 0.00 48 1012.1
20260901183253 35 117 3.2 17.7 0.00 0.00 0.00 46 1012.4
20260901182240 35 119 6.4 17.7 0.00 0.00 0.00 46 1012.5
20260901181301 35 131 4.8 16.1 0.00 0.00 0.00 47 1012.6
20260901180255 35 318 4.8 16.1 0.00 0.00 0.00 47 1012.7
20260901175259 35 132 4.8 17.7 0.00 0.00 0.00 48 1013.0
20260901174306 35 157 4.8 17.7 0.00 0.00 0.00 47 1013.2
20260901172108 35 134 3.2 9.7 0.00 0.00 0.00 49 1013.4
20260901165944 34 164 4.8 16.1 0.00 0.00 0.00 50 1013.6
20260901164929 34 101 3.2 12.9 0.00 0.00 0.00 49 1013.7
20260901163914 35 120 3.2 12.9 0.00 0.00 0.00 49 1013.8
20260901162848 34 198 1.6 9.7 0.00 0.00 0.00 51 1013.8